�N����,����,�~����,�C��,���x,�C��,����,���ϕ���,�ő�u�ԕ���,�ő厞����,���˗�,�I�_���x,�n�����x,�ő啗���N��,DTYPE
"22/07/30","00:10",0.0,26.1,86.0,1009.7,295.3,0.7,1.6,334.1,0.00,23.6,26.3,"00:06:40",1
"22/07/30","00:20",0.0,26.2,86.1,1009.7,330.7,1.1,2.0,341.0,0.00,23.7,26.2,"00:10:48",1
"22/07/30","00:30",0.0,25.9,86.3,1009.7,316.6,1.0,1.7,306.3,0.00,23.5,26.1,"00:22:40",1
"22/07/30","00:40",0.0,25.6,86.6,1009.5,299.9,0.3,0.8,261.4,0.00,23.2,26.1,"00:39:04",1
"22/07/30","00:50",0.0,25.6,86.9,1009.5,313.7,1.0,1.6,323.0,0.00,23.3,26.0,"00:44:56",1
"22/07/30","01:00",0.0,25.6,87.2,1009.5,300.8,1.1,2.2,331.6,0.00,23.4,25.8,"00:58:16",1
"22/07/30","01:10",0.0,25.6,87.3,1009.5,321.5,1.1,1.4,330.8,0.00,23.4,26.1,"01:02:32",1
"22/07/30","01:20",0.0,25.5,87.5,1009.7,270.5,0.8,1.3,351.5,0.00,23.3,25.9,"01:10:08",1
"22/07/30","01:30",0.0,25.3,87.7,1009.3,340.2,1.0,1.6,338.2,0.00,23.2,26.0,"01:24:16",1
"22/07/30","01:40",0.0,25.2,87.8,1009.7,336.0,0.8,1.4,313.5,0.00,23.1,26.0,"01:30:48",1
"22/07/30","01:50",0.0,25.1,88.2,1009.5,296.7,0.8,1.4,252.8,0.00,23.0,26.1,"01:49:36",1
"22/07/30","02:00",0.0,25.0,88.4,1009.3,317.9,0.7,1.7,320.5,0.00,23.0,26.0,"01:54:40",1
"22/07/30","02:10",0.0,25.0,88.6,1009.5,274.2,0.7,1.3,327.8,0.00,23.0,25.9,"02:05:52",1
"22/07/30","02:20",0.0,24.9,88.7,1009.3,328.0,0.8,1.6,338.9,0.00,22.9,26.0,"02:14:08",1
"22/07/30","02:30",0.0,24.8,88.8,1009.3,325.9,0.7,1.4,337.8,0.00,22.9,25.9,"02:24:48",1
"22/07/30","02:40",0.0,24.5,89.0,1009.3,293.5,0.5,1.2,266.5,0.00,22.6,25.7,"02:37:44",1
"22/07/30","02:50",0.0,24.6,89.2,1009.5,288.5,0.8,1.3,311.6,0.00,22.7,25.8,"02:44:48",1
"22/07/30","03:00",0.0,24.6,89.3,1009.5,310.6,1.0,1.4,324.3,0.00,22.8,26.0,"02:54:48",1
"22/07/30","03:10",0.0,24.7,89.4,1009.5,331.4,0.7,1.3,316.9,0.00,22.9,25.7,"03:00:16",1
"22/07/30","03:20",0.0,24.5,89.4,1009.7,284.9,0.6,1.0,307.4,0.00,22.7,25.9,"03:13:36",1
"22/07/30","03:30",0.0,24.4,89.5,1009.0,292.8,0.7,1.1,313.1,0.00,22.6,25.8,"03:26:48",1
"22/07/30","03:40",0.0,24.4,89.5,1009.7,309.6,1.1,1.4,302.0,0.00,22.6,25.6,"03:36:48",1
"22/07/30","03:50",0.0,24.4,89.6,1009.5,283.6,0.7,1.6,318.6,0.00,22.6,25.7,"03:45:04",1
"22/07/30","04:00",0.0,24.4,89.6,1009.5,313.7,1.0,1.3,335.5,0.00,22.6,25.8,"03:54:24",1
"22/07/30","04:10",0.0,24.4,89.6,1009.5,295.4,0.8,1.4,302.1,0.00,22.6,25.6,"04:08:16",1
"22/07/30","04:20",0.0,24.4,89.6,1009.0,293.5,0.8,1.3,316.2,0.00,22.6,25.7,"04:15:36",1
"22/07/30","04:30",0.0,24.4,89.7,1009.3,313.7,1.0,1.4,320.8,0.00,22.6,25.5,"04:24:00",1
"22/07/30","04:40",0.0,24.4,89.7,1009.7,312.4,1.0,1.2,329.4,0.00,22.6,25.7,"04:30:32",1
"22/07/30","04:50",0.0,24.3,89.8,1009.5,316.2,0.8,2.0,312.4,0.00,22.6,25.7,"04:44:32",1
"22/07/30","05:00",0.0,24.2,89.9,1009.3,323.5,0.8,1.3,320.1,0.00,22.5,25.5,"04:55:12",1
"22/07/30","05:10",0.0,24.2,90.0,1009.5,313.0,0.6,1.1,317.0,0.00,22.5,25.6,"05:04:08",1
"22/07/30","05:20",0.0,24.0,90.1,1009.5,308.4,0.6,0.9,327.0,0.00,22.3,25.6,"05:14:16",1
"22/07/30","05:30",0.0,24.0,90.3,1009.3,327.9,0.8,1.2,336.6,0.00,22.4,25.5,"05:27:36",1
"22/07/30","05:40",0.0,23.9,90.5,1009.3,304.9,0.6,1.1,300.5,0.00,22.3,25.4,"05:39:04",1
"22/07/30","05:50",0.0,24.1,90.7,1009.5,291.6,1.0,1.6,298.6,0.00,22.5,25.6,"05:47:20",1
"22/07/30","06:00",0.0,24.1,90.9,1009.5,294.1,0.7,1.2,253.4,0.00,22.6,25.5,"05:59:52",1
"22/07/30","06:10",0.0,24.3,91.1,1009.3,314.8,1.0,1.2,343.2,0.00,22.8,25.5,"06:04:48",1
"22/07/30","06:20",0.0,24.5,91.2,1009.0,330.1,0.8,1.2,348.1,0.01,23.0,25.4,"06:13:04",1
"22/07/30","06:30",0.0,24.7,91.3,1009.5,337.2,1.0,1.4,339.8,0.02,23.2,25.4,"06:22:56",1
"22/07/30","06:40",0.0,25.1,91.4,1009.3,312.4,0.7,1.1,335.8,0.03,23.6,25.6,"06:34:48",1
"22/07/30","06:50",0.0,25.5,91.4,1009.3,315.6,0.8,1.7,330.5,0.03,24.0,25.4,"06:46:32",1
"22/07/30","07:00",0.0,26.2,91.2,1009.3,298.5,0.6,1.3,323.6,0.05,24.7,25.5,"06:52:24",1
"22/07/30","07:10",0.0,26.6,90.7,1009.5,274.0,0.2,0.9,258.1,0.07,25.0,25.4,"07:06:08",1
"22/07/30","07:20",0.0,27.3,90.0,1009.3,296.8,0.3,0.9,264.0,0.09,25.6,25.2,"07:10:24",1
"22/07/30","07:30",0.0,28.0,87.7,1009.3,350.0,0.5,1.3,22.0,0.12,25.8,25.3,"07:27:12",1
"22/07/30","07:40",0.0,29.1,85.3,1008.8,349.5,0.3,1.0,2.7,0.15,26.4,25.2,"07:38:00",1
"22/07/30","07:50",0.0,30.3,79.5,1009.5,93.0,0.7,2.4,109.1,0.20,26.4,25.3,"07:48:56",1
"22/07/30","08:00",0.0,30.5,75.1,1009.7,120.7,1.1,2.8,129.8,0.21,25.6,25.3,"07:55:04",1
"22/07/30","08:10",0.0,30.6,74.0,1010.2,123.4,0.8,2.1,117.8,0.20,25.5,25.2,"08:01:04",1
"22/07/30","08:20",0.0,30.4,72.8,1009.7,110.6,1.1,2.6,132.4,0.22,25.0,25.3,"08:18:16",1
"22/07/30","08:30",0.0,30.2,73.2,1009.7,139.5,1.1,2.5,170.6,0.16,24.9,25.4,"08:22:56",1
"22/07/30","08:40",0.0,30.0,73.3,1010.0,119.1,1.0,1.7,181.8,0.14,24.7,25.3,"08:34:08",1
"22/07/30","08:50",0.0,30.1,73.4,1009.5,103.2,0.8,2.0,78.0,0.16,24.9,25.5,"08:45:36",1
"22/07/30","09:00",0.0,30.5,72.2,1010.0,92.9,1.1,2.2,108.2,0.23,25.0,25.7,"08:54:08",1
"22/07/30","09:10",0.0,30.5,72.3,1009.5,111.3,1.1,2.7,28.3,0.23,25.0,25.6,"09:08:00",1
"22/07/30","09:20",0.0,30.6,72.7,1009.5,105.9,1.1,2.8,126.5,0.23,25.2,25.6,"09:10:24",1
"22/07/30","09:30",0.0,30.8,71.9,1009.7,96.7,1.2,2.4,83.0,0.26,25.2,25.3,"09:27:44",1
"22/07/30","09:40",0.0,30.7,71.8,1010.0,123.4,1.6,4.1,140.8,0.26,25.1,25.4,"09:37:04",1
"22/07/30","09:50",0.0,30.8,71.9,1009.7,126.1,1.2,4.0,125.4,0.25,25.2,25.6,"09:42:24",1
"22/07/30","10:00",0.0,31.2,71.7,1010.0,98.8,1.2,3.1,53.5,0.28,25.5,25.6,"09:53:12",1
"22/07/30","10:10",0.0,31.4,69.5,1010.0,107.0,1.2,2.6,83.6,0.31,25.2,25.7,"10:06:56",1
"22/07/30","10:20",0.0,31.8,68.2,1009.7,114.9,1.3,3.5,138.5,0.38,25.2,25.9,"10:11:12",1
"22/07/30","10:30",0.0,31.4,68.7,1009.7,123.0,1.5,4.5,122.8,0.20,25.0,25.6,"10:28:00",1
"22/07/30","10:40",0.0,32.1,68.6,1009.5,134.0,1.6,4.7,163.0,0.36,25.6,25.7,"10:36:40",1
"22/07/30","10:50",0.0,32.6,67.4,1010.0,127.1,1.6,3.6,135.8,0.41,25.8,25.7,"10:48:40",1
"22/07/30","11:00",0.0,32.4,66.2,1010.2,132.0,1.5,3.2,143.4,0.35,25.3,25.8,"10:50:32",1
"22/07/30","11:10",0.0,32.5,64.9,1010.0,135.0,1.7,4.4,129.9,0.37,25.1,25.6,"11:08:16",1
"22/07/30","11:20",0.0,32.7,63.8,1010.2,145.9,2.1,5.8,138.4,0.34,25.0,25.9,"11:14:32",1
"22/07/30","11:30",0.0,32.3,63.4,1010.0,141.4,2.1,5.4,135.5,0.27,24.5,25.8,"11:24:08",1
"22/07/30","11:40",0.0,32.1,64.7,1010.0,121.8,1.7,4.0,181.0,0.22,24.7,25.8,"11:32:40",1
"22/07/30","11:50",0.0,32.2,64.2,1010.0,128.1,1.3,3.5,133.3,0.22,24.6,26.0,"11:46:40",1
"22/07/30","12:00",0.0,32.5,63.3,1009.7,159.3,2.0,3.6,223.4,0.25,24.7,25.7,"11:56:00",1
"22/07/30","12:10",0.0,33.0,64.0,1009.5,149.9,2.0,3.7,152.2,0.40,25.3,25.9,"12:08:00",1
"22/07/30","12:20",0.0,34.2,60.6,1010.0,122.8,1.7,3.4,113.1,0.62,25.5,25.9,"12:17:12",1
"22/07/30","12:30",0.0,34.5,58.3,1010.2,152.4,1.8,3.7,164.5,0.60,25.2,26.0,"12:20:08",1
"22/07/30","12:40",0.0,34.0,59.1,1010.0,127.9,1.6,4.4,107.7,0.35,24.9,25.9,"12:35:12",1
"22/07/30","12:50",0.0,33.8,59.2,1009.7,153.7,1.6,4.1,175.5,0.33,24.8,25.9,"12:49:52",1
"22/07/30","13:00",0.0,33.1,61.1,1009.0,171.0,1.8,3.6,159.7,0.17,24.6,26.0,"12:51:12",1
"22/07/30","13:10",0.0,33.1,61.4,1009.5,159.3,1.6,3.1,181.7,0.23,24.7,26.0,"13:07:44",1
"22/07/30","13:20",0.0,32.9,62.2,1009.3,168.4,2.0,4.2,178.7,0.19,24.7,26.2,"13:15:28",1
"22/07/30","13:30",0.0,32.8,62.6,1009.3,150.6,1.8,3.5,136.5,0.22,24.8,26.3,"13:23:20",1
"22/07/30","13:40",0.0,32.8,63.8,1009.0,149.7,1.7,4.4,134.4,0.27,25.1,25.9,"13:38:24",1
"22/07/30","13:50",0.0,33.4,66.1,1009.0,133.2,1.7,5.8,145.6,0.46,26.2,26.2,"13:41:12",1
"22/07/30","14:00",0.0,32.7,63.7,1009.7,142.0,1.6,3.9,157.6,0.35,25.0,26.2,"13:54:32",1
"22/07/30","14:10",0.0,32.6,64.9,1009.7,151.9,1.3,3.3,211.1,0.26,25.2,26.3,"14:07:12",1
"22/07/30","14:20",0.0,32.8,63.3,1009.5,98.0,1.1,3.9,119.8,0.29,24.9,26.3,"14:11:52",1
"22/07/30","14:30",0.0,33.1,63.1,1009.0,78.3,0.7,1.9,49.1,0.18,25.2,26.2,"14:20:24",1
"22/07/30","14:40",0.0,32.9,63.1,1008.8,60.2,1.0,2.0,5.6,0.20,25.0,26.2,"14:37:28",1
"22/07/30","14:50",0.0,33.6,62.6,1008.8,9.6,1.0,2.0,14.9,0.36,25.5,26.2,"14:47:20",1
"22/07/30","15:00",0.0,34.0,61.6,1008.8,7.2,1.6,3.6,34.0,0.41,25.6,26.4,"14:52:56",1
"22/07/30","15:10",0.0,34.1,60.7,1008.6,358.7,1.1,2.6,339.8,0.31,25.5,26.5,"15:09:36",1
"22/07/30","15:20",0.0,33.7,61.8,1008.1,295.7,0.7,2.6,18.4,0.15,25.4,26.5,"15:11:28",1
"22/07/30","15:30",0.0,32.9,62.2,1007.8,255.2,0.7,2.0,139.7,0.12,24.7,26.3,"15:22:56",1
"22/07/30","15:40",0.0,33.4,62.4,1007.8,123.2,0.7,1.9,88.0,0.15,25.3,26.3,"15:35:52",1
"22/07/30","15:50",0.0,33.5,62.5,1007.8,43.9,0.8,1.9,358.9,0.11,25.4,26.5,"15:43:04",1
"22/07/30","16:00",0.0,33.8,61.9,1007.8,16.9,0.8,2.1,8.0,0.21,25.5,26.5,"15:55:12",1
"22/07/30","16:10",0.0,33.8,60.8,1007.6,169.5,1.3,3.1,213.9,0.19,25.2,26.6,"16:06:16",1
"22/07/30","16:20",0.0,33.9,60.6,1008.1,113.5,1.1,2.4,144.5,0.18,25.2,26.4,"16:10:02",1
"22/07/30","16:30",0.0,33.1,61.9,1007.6,109.0,1.0,2.6,113.9,0.10,24.9,26.6,"16:20:16",1
"22/07/30","16:40",0.0,32.9,61.8,1007.4,138.7,1.1,2.2,115.2,0.09,24.6,26.6,"16:32:24",1
"22/07/30","16:50",0.0,32.8,61.4,1007.6,145.9,1.7,3.3,169.9,0.09,24.4,26.5,"16:44:32",1
"22/07/30","17:00",0.0,32.9,63.1,1007.1,95.6,0.7,2.7,95.1,0.09,25.0,26.7,"16:57:20",1
"22/07/30","17:10",0.0,32.8,63.1,1006.7,111.5,0.8,1.8,121.3,0.07,24.9,26.6,"17:02:40",1
"22/07/30","17:20",0.0,32.7,64.2,1006.7,73.8,0.7,1.7,73.8,0.08,25.1,26.5,"17:13:28",1
"22/07/30","17:30",0.0,32.8,64.8,1006.9,46.1,0.6,1.2,5.2,0.07,25.3,26.4,"17:21:20",1
"22/07/30","17:40",0.0,32.7,64.7,1006.7,101.5,1.1,2.4,139.5,0.10,25.2,26.7,"17:32:56",1
"22/07/30","17:50",0.0,32.5,64.8,1006.9,92.3,1.3,3.2,79.9,0.06,25.1,26.5,"17:40:24",1
"22/07/30","18:00",0.0,32.1,65.9,1006.9,100.6,1.0,2.7,124.8,0.02,25.0,26.7,"17:55:28",1
"22/07/30","18:10",0.0,32.2,66.6,1006.4,63.2,1.0,2.0,87.7,0.02,25.2,26.5,"18:03:04",1
"22/07/30","18:20",0.0,32.6,66.5,1006.4,29.5,0.7,2.0,29.7,0.05,25.6,26.4,"18:14:56",1
"22/07/30","18:30",0.0,32.5,66.1,1006.7,26.2,0.7,2.5,45.4,0.03,25.4,26.5,"18:20:08",1
"22/07/30","18:40",0.0,32.2,66.5,1006.9,20.8,1.1,2.5,7.0,0.02,25.2,26.7,"18:32:08",1
"22/07/30","18:50",0.0,31.7,67.7,1006.4,27.5,0.7,1.9,64.5,0.01,25.0,26.5,"18:43:28",1
"22/07/30","19:00",0.0,31.2,69.4,1006.7,17.8,0.6,1.4,5.4,0.00,25.0,26.5,"18:54:40",1
"22/07/30","19:10",0.0,30.9,71.0,1006.2,46.7,0.7,1.7,46.9,0.00,25.1,26.6,"19:00:08",1
"22/07/30","19:20",0.0,30.7,72.2,1006.4,356.3,0.8,1.7,354.0,0.00,25.2,26.5,"19:13:44",1
"22/07/30","19:30",0.0,30.5,72.9,1006.0,349.0,1.0,2.1,326.0,0.00,25.1,26.6,"19:26:40",1
"22/07/30","19:40",0.0,30.2,73.6,1006.0,7.6,0.7,1.3,348.0,0.00,25.0,26.6,"19:34:24",1
"22/07/30","19:50",0.0,29.9,74.3,1006.0,340.6,0.5,1.2,330.2,0.00,24.9,26.5,"19:45:12",1
"22/07/30","20:00",0.0,29.6,75.8,1005.7,309.4,0.8,1.8,336.1,0.00,24.9,26.6,"19:57:52",1
"22/07/30","20:10",0.0,29.2,77.2,1005.7,318.1,0.7,1.7,345.9,0.00,24.8,26.5,"20:08:16",1
"22/07/30","20:20",0.0,29.1,78.2,1006.0,294.4,0.8,1.6,337.8,0.00,25.0,26.6,"20:15:52",1
"22/07/30","20:30",0.0,28.9,78.9,1006.4,321.1,1.1,2.8,333.2,0.00,24.9,26.6,"20:24:40",1
"22/07/30","20:40",0.0,28.8,79.7,1006.9,331.0,0.8,1.3,335.1,0.00,25.0,26.4,"20:39:52",1
"22/07/30","20:50",0.0,28.5,80.3,1006.9,312.5,1.0,1.4,256.0,0.00,24.8,26.5,"20:44:24",1
"22/07/30","21:00",0.0,28.5,80.6,1007.1,337.8,0.8,1.7,325.6,0.00,24.9,26.4,"20:50:56",1
"22/07/30","21:10",0.0,28.5,80.9,1006.9,353.1,0.7,1.2,359.7,0.00,24.9,26.4,"21:06:48",1
"22/07/30","21:20",0.0,28.4,81.4,1007.1,333.7,0.8,1.3,349.4,0.00,24.9,26.7,"21:12:00",1
"22/07/30","21:30",0.0,28.3,81.4,1006.9,340.6,1.1,1.8,344.9,0.00,24.8,26.5,"21:24:56",1
"22/07/30","21:40",0.0,28.4,80.6,1007.1,338.1,1.1,1.9,349.9,0.00,24.8,26.3,"21:34:08",1
"22/07/30","21:50",0.0,28.5,79.4,1007.4,338.5,1.1,2.5,345.7,0.00,24.6,26.4,"21:41:20",1
"22/07/30","22:00",0.0,28.7,77.9,1007.4,342.7,1.5,2.6,325.5,0.00,24.5,26.4,"21:58:16",1
"22/07/30","22:10",0.0,28.8,76.7,1007.4,347.7,1.3,3.1,337.9,0.00,24.3,26.2,"22:00:32",1
"22/07/30","22:20",0.0,28.8,76.5,1007.4,353.5,1.1,2.8,356.0,0.00,24.3,26.4,"22:11:12",1
"22/07/30","22:30",0.0,28.7,76.2,1007.4,345.7,1.2,2.7,345.5,0.00,24.1,26.3,"22:29:04",1
"22/07/30","22:40",0.0,28.7,76.1,1007.6,348.2,0.8,1.9,328.6,0.00,24.1,26.4,"22:30:02",1
"22/07/30","22:50",0.0,28.6,76.1,1007.6,338.1,1.1,2.1,341.3,0.00,24.0,26.2,"22:42:08",1
"22/07/30","23:00",0.0,28.7,75.8,1007.4,326.5,1.5,2.5,327.5,0.00,24.0,26.3,"22:52:32",1
"22/07/30","23:10",0.0,28.7,75.5,1007.6,292.3,0.7,2.0,331.7,0.00,24.0,26.4,"23:06:20",1
"22/07/30","23:20",0.0,28.8,75.0,1007.8,313.1,1.6,3.9,350.4,0.00,24.0,26.2,"23:19:20",1
"22/07/30","23:30",0.0,28.8,74.9,1008.1,299.9,1.0,2.9,4.3,0.00,23.9,26.3,"23:24:56",1
"22/07/30","23:40",0.0,28.6,75.1,1008.1,315.7,1.2,3.2,338.4,0.00,23.8,26.3,"23:32:24",1
"22/07/30","23:50",0.0,28.5,75.0,1007.6,291.2,1.2,2.5,326.3,0.00,23.7,26.2,"23:49:28",1
"22/07/30","24:00",0.0,28.8,74.1,1007.6,281.7,1.5,2.5,246.4,0.00,23.8,26.2,"23:51:28",1
